W7KKE-3 Weather Reports


time (UTC)temp
F
wind
direction
speed
knots
gust
knots
rain 1hr
in
rain 24hr
in
rain mn
in
humidity
%
barometer
mb
20210723162705 60 319 0.0 1.7 0.00 0.00 0.00 72 1025.6
20210723162205 60 0 0.0 0.0 0.00 0.00 0.00 71 1025.6
20210723161706 59 0 0.0 0.0 0.00 0.00 0.00 73 1025.5
20210723160705 57 0 0.0 0.0 0.00 0.00 0.00 74 1025.6
20210723160208 57 0 0.0 0.0 0.00 0.00 0.00 74 1025.7
20210723155705 56 0 0.0 0.0 0.00 0.00 0.00 77 1025.6
20210723155205 55 0 0.0 0.0 0.00 0.00 0.00 77 1025.6
20210723154707 55 0 0.0 0.0 0.00 0.00 0.00 79 1025.5
20210723154205 54 0 0.0 0.0 0.00 0.00 0.00 77 1025.5
20210723153704 54 0 0.0 0.0 0.00 0.00 0.00 77 1025.6
20210723153205 53 0 0.0 0.0 0.00 0.00 0.00 77 1025.6
20210723152704 53 0 0.0 0.0 0.00 0.00 0.00 77 1025.5
20210723152204 53 0 0.0 0.0 0.00 0.00 0.00 77 1025.5
20210723151704 53 0 0.0 0.0 0.00 0.00 0.00 77 1025.5
20210723151204 53 0 0.0 0.0 0.00 0.00 0.00 77 1025.5
20210723150704 53 0 0.0 0.0 0.00 0.00 0.00 76 1025.5
20210723150205 53 0 0.0 0.0 0.00 0.00 0.00 76 1025.5
20210723145704 53 0 0.0 0.0 0.00 0.00 0.00 76 1025.5
20210723145204 53 0 0.0 0.0 0.00 0.00 0.00 76 1025.5
20210723144706 53 0 0.0 0.0 0.00 0.00 0.00 76 1025.4
20210723144204 53 0 0.0 0.0 0.00 0.00 0.00 76 1025.3
20210723143704 53 0 0.0 0.0 0.00 0.00 0.00 76 1025.3
20210723143205 53 0 0.0 0.0 0.00 0.00 0.00 76 1025.3
20210723142704 52 0 0.0 0.0 0.00 0.00 0.00 76 1025.3
20210723142204 52 0 0.0 0.0 0.00 0.00 0.00 76 1025.3
20210723141704 52 0 0.0 0.0 0.00 0.00 0.00 77 1025.4
20210723141204 52 0 0.0 0.0 0.00 0.00 0.00 76 1025.2
20210723140704 52 0 0.0 0.0 0.00 0.00 0.00 76 1025.2
20210723140205 52 0 0.0 0.0 0.00 0.00 0.00 74 1025.2
20210723135704 52 0 0.0 2.6 0.00 0.00 0.00 74 1025.1
20210723135204 52 0 0.0 2.6 0.00 0.00 0.00 74 1025.1
20210723134704 52 148 0.0 2.6 0.00 0.00 0.00 74 1025.0
20210723134204 52 0 0.0 0.0 0.00 0.00 0.00 75 1025.0
20210723133704 52 0 0.0 0.0 0.00 0.00 0.00 74 1025.0
20210723133205 52 102 0.0 3.5 0.00 0.00 0.00 75 1024.9
20210723132704 52 0 0.0 3.5 0.00 0.00 0.00 75 1024.9
20210723132204 52 141 0.0 3.5 0.00 0.00 0.00 74 1024.9
20210723131704 52 134 0.0 4.3 0.00 0.00 0.00 76 1024.8
20210723131204 52 140 0.9 4.3 0.00 0.00 0.00 74 1024.8
20210723130704 52 145 1.7 4.3 0.00 0.00 0.00 74 1024.8
20210723130205 52 137 2.6 3.5 0.00 0.00 0.00 74 1024.8
20210723125704 52 151 1.7 4.3 0.00 0.00 0.00 74 1024.7
20210723125204 52 140 1.7 4.3 0.00 0.00 0.00 74 1024.7
20210723124704 52 142 1.7 4.3 0.00 0.00 0.00 75 1024.7
20210723124204 52 156 3.5 3.5 0.00 0.00 0.00 74 1024.7
20210723123704 52 141 0.9 3.5 0.00 0.00 0.00 74 1024.7
20210723123205 52 147 0.9 4.3 0.00 0.00 0.00 74 1024.6
20210723122704 52 148 1.7 4.3 0.00 0.00 0.00 74 1024.7
20210723122204 52 135 0.9 4.3 0.00 0.00 0.00 74 1024.7
20210723121704 52 134 2.6 3.5 0.00 0.00 0.00 74 1024.6
20210723121204 52 133 0.9 3.5 0.00 0.00 0.00 74 1024.5
20210723120704 52 141 0.9 3.5 0.00 0.00 0.00 74 1024.5
20210723120205 52 0 0.9 2.6 0.00 0.00 0.00 74 1024.5
20210723115704 52 137 0.0 2.6 0.00 0.00 0.00 74 1024.5
20210723115204 52 0 0.9 0.9 0.00 0.00 0.00 74 1024.5
20210723114704 52 0 0.0 0.0 0.00 0.00 0.00 75 1024.5
20210723114205 52 0 0.0 0.0 0.00 0.00 0.00 74 1024.6
20210723113704 52 0 0.0 0.0 0.00 0.00 0.00 74 1024.5
20210723113207 52 0 0.0 1.7 0.00 0.00 0.00 74 1024.5
20210723112704 52 0 0.0 1.7 0.00 0.00 0.00 74 1024.4
20210723112205 52 145 0.0 1.7 0.00 0.00 0.00 73 1024.3
20210723111707 52 144 0.0 1.7 0.00 0.00 0.00 73 1024.2
20210723111204 53 149 0.0 2.6 0.00 0.00 0.00 74 1024.4
20210723110704 53 0 0.0 2.6 0.00 0.00 0.00 73 1024.5
20210723110205 53 135 0.0 2.6 0.00 0.00 0.00 73 1024.6
20210723105704 53 131 1.7 2.6 0.00 0.00 0.00 74 1024.6
20210723105204 53 148 0.0 2.6 0.00 0.00 0.00 73 1024.6
20210723104704 53 148 1.7 4.3 0.00 0.00 0.00 72 1024.6
20210723104204 53 133 2.6 4.3 0.00 0.00 0.00 73 1024.6
20210723103704 53 141 0.0 4.3 0.00 0.00 0.00 72 1024.6
20210723103205 53 141 0.0 3.5 0.00 0.00 0.00 72 1024.6
20210723102704 53 137 0.9 3.5 0.00 0.00 0.00 73 1024.6
20210723102204 53 141 0.0 5.2 0.00 0.00 0.00 71 1024.5
20210723101704 53 133 0.0 5.2 0.00 0.00 0.00 73 1024.5
20210723101204 53 131 0.0 5.2 0.00 0.00 0.00 73 1024.4
20210723100704 53 140 0.0 3.5 0.00 0.00 0.00 72 1024.4
20210723100205 53 141 0.0 2.6 0.00 0.00 0.00 71 1024.3
20210723095704 53 137 0.9 4.3 0.00 0.00 0.00 74 1024.3
20210723095204 54 135 0.9 4.3 0.00 0.00 0.00 74 1024.3
20210723094704 54 147 0.9 4.3 0.00 0.00 0.00 71 1024.3
20210723094205 54 138 2.6 4.3 0.00 0.00 0.00 71 1024.3
20210723093705 54 152 1.7 4.3 0.00 0.00 0.00 71 1024.3
20210723093205 54 135 1.7 4.3 0.00 0.00 0.00 71 1024.3
20210723092704 54 142 0.9 4.3 0.00 0.00 0.00 72 1024.2
20210723092205 54 128 0.0 3.5 0.00 0.00 0.00 71 1024.3
20210723091707 54 63 0.0 3.5 0.00 0.00 0.00 71 1024.3
20210723091205 54 131 0.0 2.6 0.00 0.00 0.00 71 1024.2
20210723090704 54 0 0.0 2.6 0.00 0.00 0.00 71 1024.2
20210723090205 54 15 0.0 2.6 0.00 0.00 0.00 70 1024.2
20210723085704 54 0 0.9 3.5 0.00 0.00 0.00 71 1024.2
20210723085204 54 46 0.0 3.5 0.00 0.00 0.00 70 1024.1
20210723084704 54 37 0.0 3.5 0.00 0.00 0.00 68 1024.1
20210723084204 55 0 0.0 0.0 0.00 0.00 0.00 68 1024.1
20210723083704 55 0 0.0 0.0 0.00 0.00 0.00 68 1024.1
20210723083205 55 0 0.0 0.0 0.00 0.00 0.00 69 1024.2
20210723082704 55 0 0.0 0.0 0.00 0.00 0.00 68 1024.1
20210723082204 55 172 0.0 3.5 0.00 0.00 0.00 69 1024.0
20210723081704 55 121 0.0 3.5 0.00 0.00 0.00 70 1023.9
20210723081204 55 148 0.0 3.5 0.00 0.00 0.00 69 1023.9
20210723080704 55 0 1.7 3.5 0.00 0.00 0.00 68 1023.9
20210723080205 56 148 0.0 3.5 0.00 0.00 0.00 69 1023.9
20210723075704 56 0 0.0 0.0 0.00 0.00 0.00 68 1023.9
20210723075204 56 0 0.0 0.0 0.00 0.00 0.00 68 1023.9
20210723074706 56 0 0.0 0.0 0.00 0.00 0.00 68 1023.9
20210723074205 56 0 0.0 0.0 0.00 0.00 0.00 68 1023.9
20210723073704 56 0 0.0 6.1 0.00 0.00 0.00 68 1023.9
20210723073204 56 28 0.0 6.1 0.00 0.00 0.00 68 1024.0
20210723072704 56 7 0.0 6.1 0.00 0.00 0.00 69 1024.0
20210723072206 56 86 1.7 4.3 0.00 0.00 0.00 68 1024.0
20210723071704 56 0 0.0 4.3 0.00 0.00 0.00 68 1024.0
20210723071205 56 170 0.0 4.3 0.00 0.00 0.00 68 1024.0
20210723070704 57 0 0.0 0.0 0.00 0.00 0.00 68 1024.0
20210723070205 57 0 0.0 2.6 0.00 0.00 0.00 68 1024.0
20210723065704 57 19 0.0 2.6 0.00 0.00 0.00 68 1024.0
20210723065204 57 147 0.0 2.6 0.00 0.00 0.00 68 1024.0
20210723064706 57 137 0.9 1.7 0.00 0.00 0.00 68 1024.0
20210723064204 57 137 0.0 0.0 0.00 0.00 0.00 68 1024.0
20210723063703 57 1 0.0 3.5 0.00 0.00 0.00 68 1024.0
20210723063204 57 140 0.0 3.5 0.00 0.00 0.00 68 1024.0
20210723062704 57 176 0.0 3.5 0.00 0.00 0.00 68 1024.0
20210723062203 58 352 0.0 2.6 0.00 0.00 0.00 68 1024.0
20210723061704 58 7 0.0 12.2 0.00 0.00 0.00 69 1024.0
20210723061203 58 42 0.9 12.2 0.00 0.00 0.00 68 1024.1
20210723060703 58 340 0.9 12.2 0.00 0.00 0.00 68 1024.1
20210723060204 58 19 0.0 8.7 0.00 0.00 0.00 68 1024.1
20210723055704 58 25 0.0 8.7 0.00 0.00 0.00 68 1024.0
20210723055203 58 352 0.9 8.7 0.00 0.00 0.00 68 1023.9
20210723054704 58 357 0.9 5.2 0.00 0.00 0.00 68 1023.8
20210723054203 58 16 0.0 5.2 0.00 0.00 0.00 68 1023.9
20210723053703 58 336 0.0 9.6 0.00 0.00 0.00 68 1023.9
20210723053204 58 355 1.7 9.6 0.00 0.00 0.00 68 1023.8
20210723052703 58 11 2.6 9.6 0.00 0.00 0.00 68 1023.6
20210723052203 58 23 4.3 8.7 0.00 0.00 0.00 67 1023.6
20210723051704 58 0 5.2 7.8 0.00 0.00 0.00 68 1023.6
20210723051203 58 357 4.3 7.8 0.00 0.00 0.00 65 1023.6
20210723050703 58 40 2.6 7.8 0.00 0.00 0.00 65 1023.5
20210723050204 58 8 1.7 7.8 0.00 0.00 0.00 65 1023.4
20210723045703 58 12 0.9 7.8 0.00 0.00 0.00 65 1023.3
20210723045203 58 21 1.7 7.0 0.00 0.00 0.00 65 1023.2
20210723044704 58 7 0.0 7.0 0.00 0.00 0.00 65 1023.2
20210723044203 59 2 0.0 7.0 0.00 0.00 0.00 65 1023.1
20210723043703 59 51 0.0 7.0 0.00 0.00 0.00 65 1023.0
20210723043205 59 26 0.9 7.8 0.00 0.00 0.00 63 1023.0
20210723042703 59 1 0.0 7.8 0.00 0.00 0.00 64 1022.9
20210723042203 59 29 0.0 7.8 0.00 0.00 0.00 64 1022.8
20210723041704 59 341 1.7 6.1 0.00 0.00 0.00 62 1022.7
20210723041203 60 0 0.9 6.1 0.00 0.00 0.00 63 1022.7
20210723040703 60 8 0.0 6.1 0.00 0.00 0.00 63 1022.6
20210723040204 60 1 0.0 5.2 0.00 0.00 0.00 61 1022.6
20210723035703 60 16 0.0 8.7 0.00 0.00 0.00 61 1022.5
20210723035203 60 16 4.3 8.7 0.00 0.00 0.00 61 1022.5
20210723034704 60 350 2.6 8.7 0.00 0.00 0.00 62 1022.6
20210723034203 60 5 3.5 10.4 0.00 0.00 0.00 61 1022.7
20210723033703 61 348 6.1 10.4 0.00 0.00 0.00 61 1022.7
20210723033204 61 32 5.2 10.4 0.00 0.00 0.00 61 1022.6
20210723032703 61 22 5.2 13.0 0.00 0.00 0.00 61 1022.6
20210723032203 61 16 7.0 13.0 0.00 0.00 0.00 62 1022.4
20210723031704 61 19 7.0 13.0 0.00 0.00 0.00 61 1022.5
20210723031203 62 30 7.8 11.3 0.00 0.00 0.00 61 1022.5
20210723030703 62 16 6.1 14.8 0.00 0.00 0.00 61 1022.5
20210723030204 62 7 7.8 14.8 0.00 0.00 0.00 60 1022.4
20210723025703 62 351 7.0 14.8 0.00 0.00 0.00 61 1022.4
20210723025203 62 8 6.1 13.9 0.00 0.00 0.00 59 1022.3
20210723024706 63 1 6.1 13.9 0.00 0.00 0.00 58 1022.4
20210723024205 63 7 7.8 13.9 0.00 0.00 0.00 58 1022.3
20210723023703 63 4 7.8 13.0 0.00 0.00 0.00 58 1022.2
20210723023204 63 352 7.0 11.3 0.00 0.00 0.00 58 1022.3
20210723022703 63 7 7.0 15.6 0.00 0.00 0.00 55 1022.3
20210723022203 63 347 5.2 15.6 0.00 0.00 0.00 56 1022.3
20210723021704 63 309 6.1 15.6 0.00 0.00 0.00 55 1022.2
20210723021203 63 18 6.1 15.6 0.00 0.00 0.00 55 1022.3
20210723020703 64 15 7.8 15.6 0.00 0.00 0.00 55 1022.3
20210723020204 64 18 7.0 15.6 0.00 0.00 0.00 55 1022.3
20210723015703 64 352 7.8 13.9 0.00 0.00 0.00 55 1022.3
20210723015203 64 0 7.0 13.9 0.00 0.00 0.00 55 1022.3
20210723014704 64 347 7.8 13.9 0.00 0.00 0.00 55 1022.2
20210723014203 64 2 9.6 14.8 0.00 0.00 0.00 55 1022.3
20210723013703 64 348 7.0 14.8 0.00 0.00 0.00 55 1022.3
20210723013204 64 7 7.0 14.8 0.00 0.00 0.00 57 1022.2
20210723012705 64 2 9.6 13.9 0.00 0.00 0.00 58 1022.2
20210723012203 64 9 7.8 17.4 0.00 0.00 0.00 58 1022.3
20210723011704 64 2 8.7 17.4 0.00 0.00 0.00 58 1022.3
20210723011203 64 317 9.6 17.4 0.00 0.00 0.00 58 1022.2
20210723010704 64 39 11.3 20.0 0.00 0.00 0.00 60 1022.3
20210723005703 64 344 8.7 20.0 0.00 0.00 0.00 58 1022.4
20210723005203 64 16 11.3 20.9 0.00 0.00 0.00 55 1022.4
20210723004704 64 14 10.4 20.9 0.00 0.00 0.00 55 1022.5
20210723004203 64 0 9.6 20.9 0.00 0.00 0.00 56 1022.3
20210723003703 64 12 12.2 20.9 0.00 0.00 0.00 56 1022.3
20210723003204 64 4 10.4 20.9 0.00 0.00 0.00 56 1022.3
20210723002703 64 344 11.3 18.2 0.00 0.00 0.00 57 1022.4
20210723002203 65 5 10.4 16.5 0.00 0.00 0.00 57 1022.4
20210723001704 65 11 10.4 16.5 0.00 0.00 0.00 55 1022.3
20210723001203 65 5 10.4 19.1 0.00 0.00 0.00 56 1022.4
20210723000703 65 322 7.8 19.1 0.00 0.00 0.00 58 1022.4
20210723000204 65 4 11.3 19.1 0.00 0.00 0.00 55 1022.5
20210722235703 65 7 11.3 19.1 0.00 0.00 0.00 58 1022.5
20210722235204 65 344 11.3 19.1 0.00 0.00 0.00 58 1022.6
20210722234704 65 21 10.4 19.1 0.00 0.00 0.00 58 1022.6
20210722234203 65 5 12.2 19.1 0.00 0.00 0.00 58 1022.6
20210722233703 65 357 11.3 19.1 0.00 0.00 0.00 58 1022.7
20210722233204 65 343 11.3 19.1 0.00 0.00 0.00 56 1022.8
20210722232703 65 16 12.2 19.1 0.00 0.00 0.00 55 1022.7
20210722232203 65 7 13.0 19.1 0.00 0.00 0.00 55 1022.7
20210722231704 66 8 11.3 20.9 0.00 0.00 0.00 55 1022.7
20210722231203 66 343 12.2 20.9 0.00 0.00 0.00 55 1022.6
20210722230703 66 5 11.3 20.9 0.00 0.00 0.00 54 1022.7
20210722230204 66 8 9.6 20.0 0.00 0.00 0.00 55 1022.6
20210722225703 66 0 11.3 20.0 0.00 0.00 0.00 52 1022.6
20210722225203 66 30 12.2 20.9 0.00 0.00 0.00 50 1022.6
20210722224704 66 347 10.4 20.9 0.00 0.00 0.00 48 1022.6
20210722224203 67 7 10.4 20.9 0.00 0.00 0.00 52 1022.6
20210722223703 67 345 10.4 19.1 0.00 0.00 0.00 52 1022.5
20210722223204 67 345 11.3 18.2 0.00 0.00 0.00 52 1022.6
20210722222703 67 316 10.4 18.2 0.00 0.00 0.00 52 1022.5
20210722222203 67 336 10.4 18.2 0.00 0.00 0.00 52 1022.6
20210722221703 66 11 10.4 21.7 0.00 0.00 0.00 52 1022.6
20210722221203 66 330 11.3 21.7 0.00 0.00 0.00 52 1022.6
20210722220703 66 343 10.4 21.7 0.00 0.00 0.00 54 1022.7
20210722220204 66 347 12.2 20.0 0.00 0.00 0.00 55 1022.7
20210722215703 66 19 13.0 20.9 0.00 0.00 0.00 54 1022.7
20210722215203 66 326 11.3 20.9 0.00 0.00 0.00 55 1022.6
20210722214703 66 331 12.2 20.9 0.00 0.00 0.00 55 1022.6
20210722214203 66 0 11.3 19.1 0.00 0.00 0.00 56 1022.6
20210722213703 66 343 11.3 19.1 0.00 0.00 0.00 55 1022.7
20210722213204 66 341 10.4 20.9 0.00 0.00 0.00 57 1022.7
20210722212703 66 341 10.4 20.9 0.00 0.00 0.00 55 1022.7
20210722212203 67 9 13.0 20.9 0.00 0.00 0.00 57 1022.8
20210722211703 67 338 10.4 18.2 0.00 0.00 0.00 55 1022.7
20210722211203 67 8 10.4 18.2 0.00 0.00 0.00 55 1022.7
20210722210703 67 5 11.3 17.4 0.00 0.00 0.00 55 1022.7
20210722210204 67 345 10.4 17.4 0.00 0.00 0.00 55 1022.7
20210722205703 67 340 10.4 17.4 0.00 0.00 0.00 53 1022.7
20210722205203 67 12 9.6 19.1 0.00 0.00 0.00 55 1022.7
20210722204703 67 345 8.7 19.1 0.00 0.00 0.00 53 1022.7
20210722204203 67 345 9.6 19.1 0.00 0.00 0.00 52 1022.7
20210722203703 67 352 8.7 17.4 0.00 0.00 0.00 55 1022.8
20210722203204 67 7 9.6 15.6 0.00 0.00 0.00 55 1022.8
20210722202703 67 5 11.3 19.1 0.00 0.00 0.00 55 1022.9
20210722202203 67 2 10.4 19.1 0.00 0.00 0.00 55 1022.9
20210722201703 67 340 10.4 19.1 0.00 0.00 0.00 56 1022.9
20210722201203 67 19 11.3 19.1 0.00 0.00 0.00 55 1022.9
20210722200703 67 320 11.3 16.5 0.00 0.00 0.00 55 1022.9
20210722200204 67 344 9.6 15.6 0.00 0.00 0.00 55 1022.9
20210722195703 68 341 10.4 18.2 0.00 0.00 0.00 55 1022.8
20210722195203 68 8 11.3 18.2 0.00 0.00 0.00 55 1022.8
20210722194703 68 5 10.4 18.2 0.00 0.00 0.00 53 1022.9
20210722194203 68 53 9.6 16.5 0.00 0.00 0.00 55 1022.8
20210722193703 68 9 11.3 16.5 0.00 0.00 0.00 55 1022.8
20210722193204 68 0 10.4 14.8 0.00 0.00 0.00 55 1022.7
20210722192703 68 354 9.6 14.8 0.00 0.00 0.00 55 1022.8
20210722192203 68 341 11.3 13.9 0.00 0.00 0.00 55 1022.8
20210722191703 68 336 8.7 16.5 0.00 0.00 0.00 55 1022.7
20210722191203 68 340 8.7 16.5 0.00 0.00 0.00 55 1022.7
20210722190704 68 5 7.8 16.5 0.00 0.00 0.00 56 1022.8
20210722190204 67 327 10.4 16.5 0.00 0.00 0.00 58 1022.7
20210722185703 67 8 7.8 16.5 0.00 0.00 0.00 58 1022.7
20210722185203 67 5 7.8 16.5 0.00 0.00 0.00 58 1022.8
20210722184703 66 7 11.3 15.6 0.00 0.00 0.00 58 1022.8
20210722184203 66 8 8.7 15.6 0.00 0.00 0.00 60 1022.8
20210722183703 66 5 9.6 15.6 0.00 0.00 0.00 59 1022.7
20210722183204 66 7 9.6 16.5 0.00 0.00 0.00 58 1022.7
20210722182203 66 9 9.6 16.5 0.00 0.00 0.00 58 1022.6
20210722181703 66 4 8.7 14.8 0.00 0.00 0.00 58 1022.6
20210722181203 66 329 7.8 13.9 0.00 0.00 0.00 58 1022.6
20210722180703 66 345 9.6 13.9 0.00 0.00 0.00 58 1022.6
20210722180204 66 323 7.8 13.9 0.00 0.00 0.00 58 1022.6
20210722175703 66 354 8.7 12.2 0.00 0.00 0.00 58 1022.6
20210722175204 66 350 7.0 13.9 0.00 0.00 0.00 58 1022.6
20210722174703 66 18 7.8 13.9 0.00 0.00 0.00 60 1022.6
20210722174203 66 0 7.8 13.9 0.00 0.00 0.00 60 1022.6
20210722173703 66 7 8.7 14.8 0.00 0.00 0.00 61 1022.6
20210722173204 65 11 7.0 14.8 0.00 0.00 0.00 61 1022.6
20210722172703 65 345 8.7 14.8 0.00 0.00 0.00 61 1022.7
20210722172203 65 18 8.7 13.0 0.00 0.00 0.00 61 1022.7
20210722171703 64 4 7.8 13.0 0.00 0.00 0.00 64 1022.7
20210722171203 64 348 9.6 13.0 0.00 0.00 0.00 64 1022.7
20210722170824 64 9 7.8 11.3 0.00 0.00 0.00 65 1022.7
20210722170703 64 340 6.1 11.3 0.00 0.00 0.00 66 1022.7
20210722170204 64 9 7.8 11.3 0.00 0.00 0.00 65 1022.7
20210722165703 63 2 5.2 11.3 0.00 0.00 0.00 68 1022.8
20210722165203 63 347 5.2 8.7 0.00 0.00 0.00 68 1022.9
20210722164703 62 28 4.3 8.7 0.00 0.00 0.00 70 1022.9
20210722164203 62 8 5.2 8.7 0.00 0.00 0.00 70 1022.9
20210722163703 62 343 5.2 7.0 0.00 0.00 0.00 71 1022.8